Location: Hochstatterhof
(48.7256°N, 10.3487°E)
Time: 01:08:59
(UTC+00:00)

NOAA 11 - Pass Details

Date: 26 September 2023
Orbit: 832 x 849 km, 98.5° (Epoch: 04 December)

Event Time Altitude Azimuth Distance (km) Brightness Sun altitude
Rises 03:50:33 0° 11° (N) 3,428 7.7 -13.8°
Reaches altitude 10° 03:52:57 10° 8° (N) 2,488 6.9 -13.5°
Maximum altitude 03:58:22 60° 290° (WNW) 967 4.3 -12.6°
Drops below altitude 10° 04:03:45 10° 212° (SSW) 2,465 6.2 -11.7°
Sets 04:06:08 0° 208° (SSW) 3,394 7.0 -11.3°
Enters shadow 04:06:10 - 208° (SSW) 3,411 7.0 -11.3°
